Tracking 35274 objects as of 11-Sep-2026
HD Live streaming from Space Station
objects crossing your sky now

STARLINK-34213

Track STARLINK-34213 now!
10-day predictions
STARLINK-34213 is classified as:


NORAD ID: 64148
Int'l Code: 2025-112C
Launch date: May 27, 2025
Source: United States (US)
Launch site: AIR FORCE WESTERN TEST RANGE (AFWTR)
Your satellite tracking list
Your tracking list is empty




NASA's NSSDC Master Catalog

Two Line Element Set (TLE):
1 64148U 25112C   26254.11415111  .00023667  00000-0  73300-3 0  9998
2 64148  97.2829 301.3692 0001174  74.3602 285.7770 15.33449908 71315
Source of the keplerian elements: AFSPC